Location: Newark
(49.8969°N, 3.3422°E)
Time: 21:08:24
(UTC+00:00)

deb Explorer IX - Pass Details

Date: 24 January 2020
Orbit: 549 x 1099 km, 38.8° (Epoch: 22 February)

Event Time Altitude Azimuth Distance (km) Brightness Sun altitude
Rises 03:13:39 0° 266° (W) 3,879 - -40.8°
Reaches altitude 10° 03:17:37 10° 246° (WSW) 2,867 - -40.2°
Maximum altitude 03:21:35 16° 212° (SSW) 2,365 - -39.6°
Drops below altitude 10° 03:25:21 10° 176° (S) 2,685 - -39.1°
Sets 03:28:54 0° 156° (SSE) 3,518 - -38.5°
